レモン彗星

C/2018 C2 ( Lemmon )

English version
Home page
Updated on May 21, 2018

---------------------------------------------------------------------

・ プロフィール

発見日 2018年2月5日
発見光度 19.9等
発見者 Mount Lemmon Survey

・ 写真集

・ 軌道要素

Epoch 2018 June 11.0 TT = JDT 2458280.5
T 2018 June 2.21886 TT                                  MPCW
q   1.9565693            (2000.0)            P               Q
z  -0.0009402      Peri.  134.13444     -0.57783191     +0.58836282
 +/-0.0000097      Node    91.14042     -0.81107649     -0.49116339
e   1.0018395      Incl.   34.45397     +0.09091320     -0.64232991
From 221 observations 2018 Jan. 28-Mar. 28, mean residual 0".3.

・ 星図

・ 光度変化

        m1 = 8.0 + 5 logΔ + 25.0 log r

---------------------------------------------------------------------

軌道要素はM.P.E.C. 2018-F152に掲載されたものです。
星図はステラナビゲータ Ver.10 (アストロアーツ) で作成したものです。
光度グラフはComet for Windowsで作成したものです。

---------------------------------------------------------------------

Copyright(C) Seiichi Yoshida (comet@aerith.net). All rights reserved.